Regional Weather Roundup
Issued by NWS Grand Forks, ND

Home | Current Version | Previous Version | Text Only | Print | Product List | Glossary On
Versions: 1 2 3 4 5 6 7 8 9 10 11 12 13 14 15 16 17 18 19 20 21 22 23 24 25 26 27 28 29 30 31 32 33 34 35 36 37 38 39 40 41 42 43 44 45 46 47 48 49 50
000
ASUS43 KFGF 201331
RWRFGF
PRAIRIE TO PINES  WEATHER ROUNDUP
NATIONAL WEATHER SERVICE EASTERN NORTH DAKOTA/GRAND FORKS ND
800 AM CDT WED SEP 20 2017

 **SATELLITE DATA USED TO AUGMENT SKY COVER AT AUTOMATED STATIONS**
 *****  WEATHER ACROSS EASTERN NORTH DAKOTA  *****

CITY           SKY/WX    TMP DP  RH WIND       PRES   REMARKS
GRAND FORKS    FAIR      52  51  97 SW9       29.61R
GRAND FRKS AFB FAIR      50  49  95 W7        29.62R
DEVILS LAKE    FAIR      49  46  90 SW12      29.63R
FARGO          FAIR      52  49  89 W12       29.67
WAHPETON ARPT  FAIR      54  46  76 W8        29.71R
$$

 ***** WEATHER ACROSS CENTRAL AND WESTERN NORTH DAKOTA  *****

CITY           SKY/WX    TMP DP  RH WIND       PRES   REMARKS
BISMARCK       FAIR      44  40  85 SW5       29.71R
MINOT          FAIR      48  40  73 SW10      29.59R
JAMESTOWN      FAIR      47  42  83 W13       29.68R
MINOT AFB      FAIR      44  38  82 S5        29.58R
GARRISON         N/A     43  42  97 SW8       29.64R
WILLISTON      FAIR      43  40  89 SW8       29.59R
DICKINSON      FAIR      42  38  85 SW13      29.67R
HETTINGER      FAIR      39  36  89 CALM      29.75R
$$

 *****  OTHER AIRPORT OBSERVATIONS IN OUR AREA  *****

CITY           SKY/WX    TMP DP  RH WIND       PRES   REMARKS
WALHALLA       FAIR     N/A N/A N/A VRB7      29.56R
GRAFTON AIRPOR FAIR      52  50  93 SW8       29.63R
VALLEY CITY AR FAIR      48  48 100 W15       29.70R
CANDO          FAIR      46  46 100 SW9       29.63R
CAVALIER APRT  FAIR      52  48  87 SW8G16    29.58R
GWINNER        SUNNY     50  46  87 W12       29.72R
SHEYENNE NWR     N/A     50  48  92 W8        29.95S
ROLLA          PTSUNNY   45  45 100 SW14      29.59R
 ***** THE ABOVE OBSERVATIONS ARE NON NWS ARE NOT QUALITY
       CONTROLLED AND MAY MIS-REPORT RAIN FOR SNOW...
$$

  *****  WEATHER ACROSS NORTHERN MINNESOTA  *****

CITY           SKY/WX    TMP DP  RH WIND       PRES   REMARKS
FLAG ISLAND    CLOUDY    55  55 100 W13       29.51R
WARROAD        FAIR      55  52  88 W10       29.55R
ROSEAU         FAIR      55  52  88 SW7       29.57R
HALLOCK        CLOUDY    54  52  94 S6        29.58R
THF RVR FALLS  FAIR      54  51  90 W10       29.62R
BAUDETTE       LGT RAIN  60  58  92 W9        29.54R
WASKISH        CLOUDY    59  59 100 W15G21    29.61R
CROOKSTON      FAIR      54  52  94 W6        29.65R
STEPHEN NDAWN    N/A     52  50  93 SW5         N/A
GREENBUSH NDAW   N/A     55  54  94 W9          N/A
$$
  *****  WEATHER ACROSS CENTRAL AND WEST MINNESOTA  *****

CITY           SKY/WX    TMP DP  RH WIND       PRES   REMARKS
FOSSTON        FAIR      52  52 100 SW14      29.65R
BEMIDJI        CLOUDY    57  55  92 SW8       29.63R
PARK RAPIDS    FAIR      58  55  90 W8        29.63R
ELBOW LAKE     FAIR      54  52  95 NW7       29.71R
WADENA         FAIR      57  54  88 W7G20     29.67R
DETROIT LAKES  FAIR      54  48  82 W14       29.68R
MOORHEAD       FAIR      52  48  87 W8        29.69R
FERGUS FALLS   FAIR      54  54 100 W7        29.70R
MORRIS MN      FAIR      57  54  88 NW10      29.71R
STAPLES        CLOUDY    55  55 100 W7        29.67R
$$
  *****  WEATHER ELSEWHERE ACROSS MINNESOTA  *****

CITY           SKY/WX    TMP DP  RH WIND       PRES   REMARKS
DULUTH         CLOUDY    61  61 100 SE15      29.66S
INTRNTL FALLS  MOCLDY    63  60  90 S8G23     29.55R
ELY            LGT RAIN  59  59 100 SE15      29.65R
CLOQUET        LGT RAIN  61  59  94 E7        29.65S
WHEATON        FAIR      54  48  82 W6        29.74R
BRAINERD       CLOUDY    61  60  97 SW10      29.65R
HIBBING        LGT RAIN  60  59  96 SE9       29.62S FOG
ALEXANDRIA     FAIR      57  54  89 W17G24    29.71R
SAINT CLOUD    CLOUDY    62  62 100 W13       29.68R
MINNEAPOLIS    PTSUNNY   70  67  90 SW6       29.65R
$$

  *****  WEATHER ACROSS SOUTH DAKOTA  *****

CITY           SKY/WX    TMP DP  RH WIND       PRES   REMARKS
SIOUX FALLS    FAIR      55  52  89 NW12      29.78R
BROOKINGS      FAIR      52  49  89 W9        29.77R
WATERTOWN      FAIR      52  49  89 W14G25    29.75R
HURON          FAIR      51  47  86 W9        29.80R
SISSETON         N/A     54  47  77 W18       29.69R
ABERDEEN       FAIR      46  44  93 SW7       29.77R
MITCHELL       FAIR      52  49  89 W10       29.81R
PIERRE         FAIR      45  41  86 SW6       29.81R
MOBRIDGE       FAIR      42  40  92 S5        29.76R
RAPID CITY     CLEAR     36  30  80 NE5       29.80R
$$

  *****  SOME WEATHER IN NEARBY STATES *****

CITY           SKY/WX    TMP DP  RH WIND       PRES   REMARKS
GLASGOW MT     FAIR      41  34  76 SW6       29.57F
GREAT FALLS MT FAIR      45  25  45 SW21G30   29.57F
CHEYENNE WY    FAIR      43  28  55 W16       29.98R
SCOTTSBLUFF NE FAIR      50  31  48 W10       29.92S
OMAHA NE       FAIR      65  58  78 N12       29.73R
DES MOINES IA  FAIR      74  68  81 S8        29.72R
DAVENPORT IA   FAIR      71  65  81 S10       29.85R
CHICAGO IL     FAIR      69  65  86 SE9       29.91F
EAU CLAIRE WI  FAIR      65  63  93 SE9       29.71R
LA CROSSE WI   FAIR      71  65  81 S13       29.74S
$$

  *****  SOME NATIONAL WEATHER *****

CITY           SKY/WX    TMP DP  RH WIND       PRES   REMARKS
LA GUARDIA NY  PTSUNNY   72  65  78 N17       29.86R
RALEIGH NC     FAIR      71  67  87 SW7       30.03R
ATLANTA GA     FAIR      73  69  87 NW3       30.06R
NEW ORLEANS LA PTSUNNY   79  76  90 S3        30.00R
OKLAHOMA CITY  FAIR      73  69  87 S14       29.80R
ALBUQUERQUE NM FAIR      57  37  47 SE8       30.07R
SALT LAKE CITY FAIR      48  36  63 SE9       29.93S
LOS ANGELES CA CLOUDY    65  61  87 CALM      29.86S
BOISE ID       CLOUDY    51  36  56 SE14      29.75S
SEATTLE WA     LGT RAIN  51  49  92 N3        29.62S FOG
$$

*** WEATHER ACROSS MANITOBA...SASKATCHEWAN AND ONTARIO ***
                ***ONTARIO***

CITY           SKY/WX    TMP DP  RH WIND       PRES   REMARKS
GERALDTON      CLOUDY    54  52  94 SE5       29.95R
THUNDER BAY    LGT RAIN  59  57  94 E8        29.78R
SIOUX LOOKOUT  CLOUDY    59  57  94 S12       29.56F
TORONTO        PTSUNNY   66  64  94 NE5       30.06R
BIG TROUT LK   MOSUNNY   54  48  82 SE13G25   29.75F
PICKLE LAKE    CLOUDY    55  48  76 SE28G45   29.53F
DRYDEN         CLOUDY    59  57  94 SE13G18   29.54R
KENORA         LGT RAIN  61  59  94 S14       29.48R FOG
$$
                *** MANITOBA***

CITY           SKY/WX    TMP DP  RH WIND       PRES   REMARKS
BRANDON        MOCLDY    48  43  81 W16       29.48R
DAUPHIN        CLOUDY    48  46  93 W14G20    29.38R
ISLAND LAKE    NOT AVBL
PILOT MOUND      N/A     46  43  87 SW14        N/A
THE PAS        RAIN      52  50  93 W14G24    29.15F FOG
THOMPSON       LGT RAIN  50  45  81 NE13G26   29.48F
WINNIPEG       PTCLDY    52  50  93 SW9       29.49R
LYNN LAKE      LGT RAIN  45  43  93 NE26G40   29.47F
CHURCHILL      CLOUDY    41  37  87 E20G28    30.00F
GILLAM         CLOUDY    45  37  76 E12G29    29.71F
$$
                ***SASKATCHEWAN***

CITY           SKY/WX    TMP DP  RH WIND       PRES   REMARKS
ESTEVAN        PTCLDY    37  37 100 S8        29.53R
KINDERSLEY     PTCLDY    30  27  86 SE8       29.38F WCI  23
LLOYDMINSTER   PTCLDY    30  30 100 SW6       29.36F WCI  24
PRINCE ALBERT  MOCLDY    43  39  87 W10       29.34F
REGINA         PTCLDY    36  34  93 SE7       29.47S
YORKTON        MOCLDY    45  39  81 SW15      29.39S
N. BATTLEFORD  CLEAR     30  30 100 VRB2      29.41F
LA RONGE       LGT RAIN  48  48 100 NE9G18    29.24R FOG
SASKATOON      PTCLDY    32  30  93 SW6       29.42S
SWIFT CURRENT  CLEAR     37  28  70 SW17G23   29.42F
$$
NOTE: THESE ARE AUTOMATED STATIONS WITH LIMITED QUALITY CONTROL
      "FAIR" INDICATES FEW OR NO CLOUDS BELOW 12,000 FEET WITH NO
      SIGNIFICANT WEATHER AND/OR OBSTRUCTIONS TO VISIBILITY.
      SKY/WX - SKY CONDITION AND SIGNIFICANT WEATHER.
      TMP - AIR TEMPERATURE.    DP   - DEWPOINT TEMPERATURE.
      RH  - RELATIVE HUMIDITY.  PRES - PRESSURE.
      HX  - HEAT INDEX.         WCI  - WIND CHILL INDEX.
$




USA.gov is the U.S. government's official web portal to all federal, state and local government web resources and services.